INMARSAT 4-F1

Last updated on Thu Jul 03 2025 00:02:44 GMT+0000 (Coordinated Universal Time)

1 28628U 05009A 25183.45887079 .00000037 00000+0 00000+0 0 9995 2 28628 4.7130 42.3169 0002080 65.5423 156.1547 1.00272524 74163
UTC large
Height (km)
Speed (km/s)
/
Latitude / Longitude
Inclination (degrees)
Orbital Period (minutes)
Azimuth
Elevation
Range (km)
Doppler Factor

Next 0 passes for location: London (51.5072 / 0.1276)

Sorry there are no passes over London.